Location: �clusier
(49.9361°N, 2.7869°E)
Time: 04:43:26
(UTC+00:00)

Cosmos 1943 Rocket - Pass Details

Date: 31 October 2021
Orbit: 811 x 844 km, 71.0° (Epoch: 07 December)

Event Time Altitude Azimuth Distance (km) Brightness Sun altitude
Rises 18:10:12 0° 333° (NNW) 3,416 5.7 -17.0°
Reaches altitude 10° 18:13:16 10° 349° (N) 2,476 4.7 -17.5°
Maximum altitude 18:17:34 22° 38° (NE) 1,792 3.5 -18.2°
Enters shadow 18:18:06 21° 46° (NE) 1,804 3.5 -18.2°
